Voltar ao catálogo

CZ-6A DEB

AtivoSSO
NORAD 55238·DEBRIS·🇨🇳 China

Lançado Nov 11, 2022 de Taiyuan Satellite Launch Center

Loading…

Próximas Passagens (próximas 24 horas)

TLE

AtualizadoSource: Space-Track

Época: Sep 14, 2026, 19:01 UTC

1 55238U 22151XF  26257.79271413  .00000220  00000-0  12415-3 0  9990
2 55238  98.7829 274.9929 0026188 287.3664  72.4649 14.19868419198923

Acompanhe CZ-6A DEB em tempo real com AllMySat

Download on the App Store